Regional Weather Roundup
Issued by NWS

Home | Current Version | Previous Version | Graphics & Text | Print | Product List | Glossary Off
Versions: 1 2 3 4 5 6 7 8 9 10 11 12 13 14 15 16 17 18 19 20 21 22 23 24 25 26 27 28 29 30 31 32 33 34 35 36 37 38 39 40 41 42 43 44 45 46 47 48 49 50

000
ASUS43 KDTX 230810
RWRMI
MICHIGAN HOURLY REGIONAL WEATHER ROUNDUP
NATIONAL WEATHER SERVICE DETROIT/PONTIAC MI
400 AM EDT MON APR 23 2018

NOTE: "FAIR" INDICATES FEW OR NO CLOUDS BELOW 12,000 FEET WITH NO
SIGNIFICANT WEATHER AND/OR OBSTRUCTION TO VISIBILITY.

MIZ047>049-052>055-059>063-066>070-074>076-081>083-230900-
SOUTHEAST LOWER MICHIGAN

CITY           SKY/WX    TMP DP  RH WIND       PRES   REMARKS
ADRIAN         FAIR      42  25  50 E9        30.25F
ALMA           FAIR      35  30  83 NE3       30.31S
ANN ARBOR      FAIR      41  24  51 NE7       30.26F
BAD AXE        FAIR      41  22  48 E6        30.33F
CARO           FAIR      33  26  77 CALM      30.30F
DETROIT CITY   FAIR      42  25  50 NE7       30.28F
DETROIT        FAIR      42  24  49 NE6       30.27S
FLINT          FAIR      37  24  59 E6        30.30S WCI  32
GROSSE ILE     FAIR      41  31  67 NE7       30.25F
HILLSDALE      FAIR      45  21  39 E14G22    30.22F
HOWELL         FAIR      34  28  76 N3        30.27S

CITY           SKY/WX    TMP DP  RH WIND       PRES   REMARKS
JACKSON        FAIR      37  26  64 NE5       30.25F WCI  33
LAMBERTVILLE   FAIR      47  27  45 E7G17     30.23F
LANSING        FAIR      38  26  62 NE7       30.28F WCI  33
LAPEER         FAIR      32  28  85 CALM      30.30F
MASON          FAIR      40  23  50 NE3       30.27S
MONROE         FAIR      43  25  50 NE8       30.24F
MT. CLEMENS    FAIR      36  27  70 NE5         N/A  WCI  32
PONTIAC        FAIR      40  25  55 NE5       30.27F
PORT HOPE        N/A     34  27  75 CALM      30.33R
PORT HURON     FAIR      34  27  75 E5        30.30S WCI  30
TRI CITIES     FAIR      35  29  78 N6        30.32F WCI  30
MIDLAND        FAIR      31  29  94 CALM      30.32S
TROY           FAIR      45  22  40 NE7       30.30S
SAGINAW HB     FAIR      34  28  80 N3        30.31S
$$
MIZ043>046-050>051-056>058-064>065-071>073-077>080-230900-
SOUTHWEST LOWER MICHIGAN

CITY           SKY/WX    TMP DP  RH WIND       PRES   REMARKS
BATTLE CREEK   FAIR      43  23  45 E5        30.25F
BENTON HARBOR  FAIR      44  23  43 E6        30.22F
BIG RAPIDS     FAIR      33  25  72 CALM      30.30S
COLDWATER      FAIR      44  22  41 E7        30.22F
FREMONT        FAIR      39  23  53 E6        30.28S WCI  34
HOLLAND        FAIR      42  27  55 NE6       30.26S
GRAND RAPIDS   FAIR      40  28  62 E8        30.27S WCI  34
IONIA          FAIR      41  26  55 NE8       30.27S
KALAMAZOO      FAIR      44  23  43 NE6       30.24F
LUDINGTON      FAIR      30  27  88 CALM      30.29S
MARSHALL       FAIR      40  22  49 NE3       30.24F
MOUNT PLEASANT FAIR      38  32  80 N3        30.30F
MUSKEGON       FAIR      43  27  53 CALM      30.28S
SOUTH HAVEN    FAIR      44  24  45 E5        30.23F
$$
MIZ016>042-230900-
NORTHERN LOWER MICHIGAN

CITY           SKY/WX    TMP DP  RH WIND       PRES   REMARKS
ALPENA         FAIR      27  25  92 CALM      30.35S
BEAVER ISLAND  FAIR      46  18  32 S6        30.31S
BELLAIRE       FAIR      29  26  90 CALM      30.32F
CADILLAC       FAIR      30  23  76 CALM      30.30S
CHARLEVOIX     FAIR      33  23  66 E6        30.34S WCI  28
FRANKFORT      FAIR      36  27  69 CALM      30.29S
GAYLORD        FAIR      35  19  52 CALM      30.32S
GRAYLING       FAIR      24  19  83 CALM      30.32S
HARBOR SPRINGS FAIR      32  24  72 NE5       30.32S WCI  27
HOUGHTON LAKE  FAIR      28  25  88 CALM      30.32F
MANISTEE       FAIR      27  25  92 E6        30.29S WCI  20
OSCODA         FAIR      28  21  75 CALM      30.34S
PELLSTON       FAIR      27  22  81 CALM      30.33R
ROGERS CITY    FAIR      39  22  50 SE3       30.35S
TRAVERSE CITY  FAIR      32  27  81 CALM      30.31S
$$
MIZ007>008-015-230900-
EASTERN UPPER MICHIGAN

CITY           SKY/WX    TMP DP  RH WIND       PRES   REMARKS
KINROSS        FAIR      34  18  52 SE7       30.33R WCI  28
MACKINAC ISLAN FAIR      43  16  34 SE8       30.32R
NEWBERRY       FAIR      38  18  44 S6        30.30S WCI  33
S. S. MARIE    FAIR      38  21  50 E5        30.32F WCI  34
MUNISING         N/A     36  21  54 S10       30.28S WCI  28
$$
MIZ004>006-011>014-085-230900-
CENTRAL UPPER MICHIGAN

CITY           SKY/WX    TMP DP  RH WIND       PRES   REMARKS
MANISTIQUE     FAIR      28  23  79 CALM      30.29S
ESCANABA       FAIR      26  23  88 CALM      30.30S
MENOMINEE      FAIR      30  27  88 CALM      30.30S
SAWYER-GWINN   FAIR      34  19  53 CALM      30.28S
$$
MIZ001>003-009>011-084-230900-
WESTERN UPPER MICHIGAN

CITY           SKY/WX    TMP DP  RH WIND       PRES   REMARKS
IRON MOUNTAIN  FAIR      27  21  78 CALM      30.27S
HOUGHTON       FAIR      40  20  44 S3        30.22S
COPPER HARBOR    N/A     47  20  34 SW12      30.21S
IRONWOOD       FAIR      46  21  37 SW8       30.24F
$$

ABBREVIATIONS USED IN REMARKS
   TC - TEMPERATURE IN CELSIUS
  WCI - WIND CHILL INDEX
   HX - HEAT INDEX
  VSB - VISIBILITY





USA.gov is the U.S. government's official web portal to all federal, state and local government web resources and services.